星链-30992 (STARLINK-30992 )

导读

STARLINK-30992是美国SpaceX公司星链(Starlink)星座的一员,于2023年12月7日发射入轨。星链星座是全球大规模低轨卫星通信网络,旨在为全球提供高速宽带互联网服务,覆盖偏远地区、海事、航空等场景。作为第二代星链组网卫星,它运行于近地轨道,为星座扩容,提升全球通信覆盖容量与稳定性,支撑星链面向个人及行业客户的互联网服务能力。截至2026年,SpaceX已累计发射超万颗星链卫星,持续推进星座部署。

基本信息
目录编号:
58524
目录名称:
STARLINK-30992
国际标识:
2023-191S
轨道中心:
EARTH
卫星名称:
星链-30992
卫星全名:
星链-30992 (STARLINK-30992 )
卫星状态:
在轨 (已飞行924 天)
发射日期:
2023-12-07 UTC
国别 :
美国 (US)
星等 :
--
轨道信息
数据来源 国际轨道数据
星历时间: 2026-06-16T21:16:44+0800
1天前
查看轨道信息
半长轴: 6861.225km
偏心率: 0.0001919
轨道倾角: 43.002°
近地点辐角 285.063°
升交点赤经 264.899°
平近点角 75.001°
近地点: 481.771km
远地点: 484.405km
周期: 94.268分钟
每日圈数: 15.275673
详细信息
固有亮度:
5
最大亮度:
0.3
卫星平台:
Starlink v2.0 mini
覆盖范围:
全球
运营商:
太空探索技术公司
运营商所在国:
美国
制造商(研发单位):
太空探索技术公司
制造商所在国:
美国
使用方式:
暂无
卫星简介
星链(Starlink)计划是由太空探索技术公司(SpaceX)提出的一个巨型低轨卫星互联网星座项目,计划在2019年至2024年间在太空搭建由约1.2万颗卫星组成的“星链”网络,其中1584颗将部署在地球上空550千米处的近地轨道,并从2020年开始工作。该卫星仍在工作。
2D轨道图
3D轨道图
轨道高度分析图
轨道倾角分析图
轨道综合分析图
查看轨道综合分析图